Regional Weather Roundup
Issued by NWS

Home | Current Version | Previous Version | Text Only | Print | Product List | Glossary On
Versions: 1 2 3 4 5 6 7 8 9 10 11 12 13 14 15 16 17 18 19 20 21 22 23 24 25 26 27 28 29 30 31 32 33 34 35 36 37 38 39 40 41 42 43 44 45 46 47 48 49 50
000
ASUS43 KMKX 242100
RWRWI

WISCONSIN REGIONAL WEATHER ROUNDUP
NATIONAL WEATHER SERVICE MILWAUKEE/SULLIVAN WI
400 PM CDT TUE MAY 24 2016

NOTE: "FAIR" INDICATES FEW OR NO CLOUDS BELOW 12,000 FEET WITH NO
SIGNIFICANT WEATHER AND/OR OBSTRUCTIONS TO VISIBILITY.

WIZ001-002-006>008-014>016-023>028-242200-
NORTHWEST WISCONSIN

CITY           SKY/WX    TMP DP  RH WIND       PRES   REMARKS
SUPERIOR ARPT  SUNNY     71  60  68 NE9       29.90R
ASHLAND        MOSUNNY   69  63  81 NE13      29.90R
HAYWARD        MOSUNNY   77  58  51 MISG      29.89F
SIREN          SUNNY     79  55  43 N9        29.89S HX  80
CUMBERLAND     MOSUNNY   77  55  47 NW7       29.90R
RICE LAKE      MOSUNNY   81  49  32 W7        29.90S HX  80
CHETEK         SUNNY     81  53  38 W7        29.89S HX  81
LADYSMITH      MOSUNNY   79  55  44 SW7       29.90F HX  80
EAU CLAIRE     NOT AVBL
MENOMONIE      CLOUDY    84  60  44 SW9       29.88S HX  84
NEW RICHMOND   SUNNY     81  51  34 W12G17    29.90S HX  80
OSCEOLA        MOSUNNY   81  58  45 CALM      29.92S HX  81
$$

WIZ003>005-009-010-017-018-242200-
NORTH CENTRAL WISCONSIN

CITY           SKY/WX    TMP DP  RH WIND       PRES   REMARKS
MANITOWISH WTR MOSUNNY   76  54  45 W9G17     29.89S
ARBOR VITAE    CLOUDY    77  62  59 W9        29.90F
WOODRUFF       CLOUDY    77  62  59 W9        29.90F
RHINELANDER    CLOUDY    77  59  53 W9G18     29.91F
EAGLE RIVER      N/A     72  56  58 SW5       29.90F
LAND O LAKES   MOSUNNY   76  58  53 SW6       29.91F
PHILLIPS       MOSUNNY   76  59  55 SW7       29.89F
TOMAHAWK       CLOUDY    74  57  55 W6        29.91S
MEDFORD        PTSUNNY   74  60  63 W10G16    29.91F
MERRILL        PTSUNNY   77  59  53 W12       29.91F
$$

WIZ029-030-035-036-043>047-242200-
CENTRAL WISCONSIN

CITY           SKY/WX    TMP DP  RH WIND       PRES   REMARKS
WAUSAU         MOSUNNY   81  57  43 W14G20    29.89F HX  81
MOSINEE        NOT AVBL
MARSHFIELD     MOSUNNY   80  56  43 W9        29.90F HX  80
STEVENS POINT  MOSUNNY   79  57  47 W7        29.91S HX  80
WAUPACA        MOSUNNY   84  55  37 SW14G21   29.90S HX  83
WAUTOMA        CLOUDY    82  57  42 W14       29.91S HX  82
WISC RAPIDS    MOSUNNY   80  56  43 W6        29.92S HX  80
CAMP DOUGLAS   NOT AVBL
$$

WIZ011>013-019>022-031-037>040-048>050-242200-
NORTHEAST WISCONSIN

CITY           SKY/WX    TMP DP  RH WIND       PRES   REMARKS
ANTIGO         PTSUNNY   74  61  65 SW10      29.92F
SHAWANO        LGT RAIN  73  65  77 NW3       29.90S
OCONTO         PTSUNNY   80  61  52 SW14G21   29.87F HX  81
STURGEON BAY   NOT AVBL
GREEN BAY      MOSUNNY   84  56  38 W15       29.88S HX  83
MANITOWOC      NOT AVBL
APPLETON       PTSUNNY   81  54  39 W14G21    29.89S HX  80
CLINTONVILLE   CLOUDY    81  54  39 W12G21    29.89S HX  80
OSHKOSH        PTSUNNY   81  57  43 SW13G20   29.90S HX  81
$$

WIZ032>034-041-042-053>061-242200-
SOUTHWEST WISCONSIN

CITY           SKY/WX    TMP DP  RH WIND       PRES   REMARKS
LA CROSSE      MOSUNNY   81  58  45 CALM      29.90R HX  81
SPARTA         MOSUNNY   80  60  49 SW7       29.92S HX  81
VIROQUA        MOSUNNY   79  55  43 N5        29.93S
BOSCOBEL       MOSUNNY   83  60  45 SW6       29.91S HX  83
PRAIRIE DU CHI MOSUNNY   82  55  39 S6        29.90S HX  81
PLATTEVILLE    SUNNY     81  60  48 SW6       29.94S HX  81
$$

WIZ056-057-062-063-064-067-068-242200-
SOUTH CENTRAL WISCONSIN

CITY           SKY/WX    TMP DP  RH WIND       PRES   REMARKS
REEDSBURG      MOSUNNY   81  57  44 SW8       29.91S HX  81
BARABOO/DELLS  CLOUDY    80  54  41 W8        29.92S HX  80
LONE ROCK      NOT AVBL
MINERAL POINT  MOSUNNY   81  55  41 SW8       29.94S HX  80
MADISON        PTSUNNY   80  58  46 W6        29.92F HX  80
MIDDLETON      PTSUNNY   81  60  49 S6        29.93F HX  82
WATERTOWN      CLOUDY    81  60  48 SW12      29.91F HX  82
MONROE         MOSUNNY   81  57  44 W10       29.93S HX  81
JANESVILLE     PTSUNNY   86  55  35 SW12G18   29.91F HX  84
$$

WIZ051-052-058>065-066-070>072-242200-
SOUTHEAST WISCONSIN

CITY           SKY/WX    TMP DP  RH WIND       PRES   REMARKS
MILWAUKEE      PTSUNNY   84  57  39 SW15G24   29.91F HX  83
WAUKESHA       MOSUNNY   79  61  53 W7        29.94S HX  80
MILWAUKEE/TIMM SUNNY     82  59  44 W8        29.92F HX  82
RACINE         PTSUNNY   77  54  44 S10       29.94S
BURLINGTON     CLOUDY    83  53  34 SW12G23   29.92F HX  82
KENOSHA        MOSUNNY   85  56  37 S10G24    29.93S HX  84
FOND DU LAC    MOSUNNY   82  59  45 S17G26    29.90F HX  82
SHEBOYGAN      PTSUNNY   77  65  66 S9        29.92F
WEST BEND      CLOUDY    79  61  53 S9        29.93S HX  80
JUNEAU         PTSUNNY   78  58  50 SW15G22   29.94S
$$

LSZ147-162-242200-
LAKE SUPERIOR

STATION/POSITION TIME  TEMP    WIND        PRES    WAVE
                       AIR SEA DIR/SP/G            HT/PER
                 (UTC) (F)     (DEG/KT/KT) (MB)    (FT/S)
W MID LAKE BUOY  1950   43 38  330/  8/  8 1013.9R   0
DEVILS ISLAND    2000   51      30/ 11/ 12 1013.6R
SAXON HARBOR     2000   53      40/  8/ 11 1012.2R
$$

LMZ867-665-643>646-242200-
LAKE MICHIGAN

STATION/POSITION TIME  TEMP    WIND        PRES    WAVE
                       AIR SEA DIR/SP/G            HT/PER
                 (UTC) (F)     (DEG/KT/KT) (MB)    (FT/S)
CHAMBERS ISLAND  2040   71     150/  5/ 12 1011.9F
N MID LAKE BUOY  1950   49 45  210/ 12/ 14 1012.7R   1/ 4
NORTHPORT PIER   2000   68     180/  3/  8 1012.2F
SISTER BAY       2019   72     180/  7/  7   N/A
ALGOMA LAKESHORE 2016          210/  8/  9   N/A
KEWAUNEE LAKESHO 2000   53     170/ 12/ 13 1012.2F
SHEBOYGAN LAKESH 2000   67     170/ 13/ 16 1013.9R
PORT WASHINGTON  2000   58      CALM  / 11 1014.6R
S MID LAKE BUOY  1950   56 48  150/ 10/ 12 1014.4F   1
KENOSHA   LAKESH 2000   62     170/  8/ 13 1013.5F
$$

TC  - TEMPERATURE IN CELSIUS
VSB - VISIBILITY IN STATUTE MILES
WCI - WIND CHILL INDEX
HX  - HEAT INDEX





USA.gov is the U.S. government's official web portal to all federal, state and local government web resources and services.